Tracking 29892 objects as of 21-Nov-2024
HD Live streaming from Space Station
objects crossing your sky now

STARLINK-4099

Track STARLINK-4099 now!
10-day predictions
STARLINK-4099 is classified as:


NORAD ID: 53146
Int'l Code: 2022-083Q
Perigee: 545.6 km
Apogee: 548.0 km
Inclination: 53.2 °
Period: 95.4 minutes
Semi major axis: 6917 km
RCS: Unknown
Launch date: July 17, 2022
Source: United States (US)
Launch site: AIR FORCE EASTERN TEST RANGE (AFETR)
Your satellite tracking list
Your tracking list is empty




NASA's NSSDC Master Catalog

Two Line Element Set (TLE):
1 53146U 22083Q   24325.89991528  .00003210  00000-0  21956-3 0  9993
2 53146  53.2164 141.0431 0001752  82.0890 278.0301 15.08858423130322
Source of the keplerian elements: AFSPC